Location: Las Navas
(40.6024°N, 4.3345°W)
Time: 09:15:06
(UTC+00:00)

Resurs 01 Rocket - Pass Details

Date: 03 April 2020
Orbit: 635 x 644 km, 98.0° (Epoch: 29 May)

Event Time Altitude Azimuth Distance (km) Brightness Sun altitude
Exits shadow 21:50:04 22° 269° (W) 1,404 3.7 -32.2°
Drops below altitude 10° 21:53:20 10° 317° (NW) 2,028 5.0 -32.7°
Sets 21:55:59 0° 333° (NNW) 2,943 6.0 -33.0°
